Regional Weather Roundup
Issued by NWS

Current Version | Previous Version | Text Only | Print | Product List | Glossary On
Versions: 1 2 3 4 5 6 7 8 9 10 11 12 13 14 15 16 17 18 19 20 21 22 23 24 25 26 27 28 29 30 31 32 33 34 35 36 37 38 39 40 41 42 43 44 45 46 47 48 49 50
000
ASUS43 KDMX 191706
RWRIA

WEATHER ROUNDUP FOR IOWA
NATIONAL WEATHER SERVICE DES MOINES IA
1200 PM CDT TUE MAR 19 2019

NOTE: "FAIR" INDICATES FEW OR NO CLOUDS BELOW 12,000 FEET WITH NO
SIGNIFICANT WEATHER AND/OR OBSTRUCTIONS TO VISIBILITY.

* - THESE STATIONS ARE NOT NWS STATIONS...THUS NOT UNDER NWS
QUALITY CONTROL.  THEY ALSO DO NOT REPORT WEATHER SUCH
AS PRECIPITATION OR FOG.

IAZ001>003-012>014-020>022-031>034-043>046-191800-
   NORTHWEST IOWA

CITY           SKY/WX    TMP DP  RH WIND       PRES   REMARKS
CARROLL *      MOSUNNY   45  34  65 S10       30.26S
CHEROKEE *     CLOUDY    44  32  62 SW7       30.26S
DENISON *      CLOUDY    45  32  61 SW8       30.27S
LE MARS *      PTSUNNY   45  28  53 SW9       30.24S
SHELDON *      CLOUDY    43  37  81 SW12      30.22S
SIOUX CITY     PTSUNNY   42  29  59 SW5       30.26S
SPENCER        MOSUNNY   43  31  62 SW12      30.24R
STORM LAKE *   CLOUDY    43  32  65 SW13      30.22S
$$

IAZ055>058-069>071-079>083-090>094-191800-
   SOUTHWEST IOWA

CITY           SKY/WX    TMP DP  RH WIND       PRES   REMARKS
ATLANTIC *     CLOUDY    45  34  65 S9        30.26S
AUDUBON *      MOSUNNY   45  34  65 CALM      30.27F
CLARINDA *     LGT RAIN  39  37  93 S5        30.30S
COUNCIL BLFS * CLOUDY    39  39 100 S7        30.26S WCI  34
CRESTON *      CLOUDY    43  32  65 SE10      30.27F
HARLAN  *      CLOUDY    43  32  65 S8        30.26S
LAMONI         CLOUDY    42  30  62 S6        30.29F
RED OAK *      MIX PCPN  41  39  93 S8        30.27F
SHENANDOAH *   MIX PCPN  39  39 100 SE7       30.27S WCI  34
$$

IAZ047>049-059>061-072>074-084-191800-
   CENTRAL IOWA

CITY           SKY/WX    TMP DP  RH WIND       PRES   REMARKS
AMES           CLOUDY    46  29  51 S12       30.29F
ANKENY *       MOSUNNY   48  27  43 CALM      30.31S
BOONE *        CLOUDY    45  36  70 S9        30.27F
CHARITON *     CLOUDY    48  28  46 S12       30.30S
DES MOINES     CLOUDY    48  26  42 S10       30.30F
GRINNELL*      CLOUDY    46  31  55 S12       30.32F
KNOXVILLE *    CLOUDY    46  27  46 S12G17    30.31S
MARSHALLTOWN   CLOUDY    45  32  60 S9        30.30F
NEWTON *       MOSUNNY   46  32  57 S12       30.31S
PELLA *        CLOUDY    49  27  42 S9        30.33S
PERRY *        FAIR      45  35  67 S9        30.28F
$$

IAZ004>006-015-016-023>025-035-036-191800-
   NORTH CENTRAL IOWA

CITY           SKY/WX    TMP DP  RH WIND       PRES   REMARKS
ALGONA *       MOSUNNY   39  36  87 S14       30.25S WCI  31
CLARION *      CLOUDY    39  34  81 S10       30.28F WCI  32
ESTHERVILLE    SUNNY     39  29  67 SW13      30.24R WCI  31
FORT DODGE *   PTSUNNY   43  31  62 S13       30.27S
MASON CITY     SUNNY     40  33  76 S10       30.30S WCI  33
FOREST CITY *  FAIR      41  32  70 S12       30.28S
IOWA FALLS *   FAIR      43  34  70 S9        30.31S
$$

IAZ007>011-017>019-026>030-037>042-050>054-066-191800-
   NORTHEAST IOWA

CITY           SKY/WX    TMP DP  RH WIND       PRES   REMARKS
CEDAR RAPIDS   FAIR      45  29  53 S13       30.33F
CHARLES CITY * FAIR      41  30  65 S14       30.31S
CLINTON *      FAIR      47  27  45 S8G16     30.38F
DECORAH *      FAIR      43  30  61 S10G17    30.31S
DUBUQUE        FAIR      43  27  53 S14       30.35F
OELWEIN *      FAIR      41  34  75 S14       30.33S
WATERLOO       FAIR      44  31  60 MISG      30.32
$$

IAZ064-065-067-068-078-191800-
   EAST CENTRAL IOWA

CITY           SKY/WX    TMP DP  RH WIND       PRES   REMARKS
DAVENPORT      FAIR      47  28  47 SW14G23   30.39F
IOWA CITY      FAIR      48  28  46 S12       30.37S
MT. PLEASANT * SUNNY     50  32  50 S10       30.36S
MUSCATINE *    FAIR      48  28  46 S13       30.37F
QUAD CITIES    FAIR      50  30  46 S8        30.36F
$$

IAZ062-063-075>077-085>089-095>099-191800-
   SOUTHEAST IOWA

CITY           SKY/WX    TMP DP  RH WIND       PRES   REMARKS
BURLINGTON     SUNNY     47  28  47 S7        30.36F
FAIRFIELD *    SUNNY     50  27  40 S13       30.33F
FORT MADISON * SUNNY     48  32  53 S8        30.36F
KEOKUK *       MOSUNNY   50  28  43 SE8       30.35F
OSKALOOSA *    FAIR      48  30  49 S13       30.32F
CENTERVILLE *  FAIR      48  27  43 SE8       30.32F
OTTUMWA        MOSUNNY   49  27  42 S13       30.32F
WASHINGTON *   SUNNY     48  32  53 S12       30.35F
$$

ABBREVIATIONS USED IN REMARKS
   TC - TEMPERATURES IN CELSIUS
  WCI - WIND CHILL INDEX
   HX - HEAT INDEX
  VSB - VISIBILITY
$$





USA.gov is the U.S. government's official web portal to all federal, state and local government web resources and services.